Butler, PA

8:30 PM EDT on August 18, 2019 (GMT -0400)
Butler County-Scholter

Weather History for KBTP - June, 2019

Change the Weather History Date:

Tuesday, June 11, 2019

  Actual Average Record
Temperature  
Mean Temperature 60 °F -  
Max Temperature 72 °F 73 °F 90 °F (1968)
Min Temperature 50 °F 55 °F 32 °F (1972)
Degree Days  
Heating Degree Days 4    
Growing Degree Days 10 (Base 50)    
Moisture  
Dew Point 48 °F    
Average Humidity 70    
Maximum Humidity 100    
Minimum Humidity 36    
Precipitation  
Precipitation 0.12 in - - ()
Sea Level Pressure  
Sea Level Pressure 30.16 in    
Wind  
Wind Speed 5 mph (WNW)    
Max Wind Speed 13 mph    
Max Gust Speed 20 mph    
Visibility 10 miles    
Events      
Averages and records for this station are not official NWS values.
T = Trace of Precipitation, MM = Missing Value Source: NWS Daily Summary

Daily Weather History Graph

Daily Weather History Graph

Search for Another Location

Airport or City:

Astronomy

Jun. 11, 2019 Rise Set
Actual Time 5:47 AM EDT 8:51 PM EDT
Civil Twilight 5:14 AM EDT 9:24 PM EDT
Nautical Twilight 4:32 AM EDT 10:06 PM EDT
Astronomical Twilight 3:42 AM EDT 10:56 PM EDT
Moon 2:46 PM EDT (6/11) 2:33 AM EDT (6/11)
Length of Visible Light 16h 09m
Length of Day
15h 03m
Waxing Gibbous, 66% of the Moon is Illuminated
Jun 11
Waxing Gibbous
Jun 17
Full
Jun 25
Last Quarter
Jul 2
New
Jul 9
First Quarter

Hourly Weather History & Observations

Time (EDT) Temp. Dew Point Humidity Pressure Visibility Wind Dir Wind Speed Gust Speed Precip Events Conditions
12:56 AM 55.9 °F 54.0 °F 93% 30.09 in 10.0 mi WNW 8.1 mph - 0.01 in   Overcast
1:21 AM 55.4 °F 51.8 °F 88% 30.09 in 10.0 mi Variable 4.6 mph - N/A   Mostly Cloudy
1:56 AM 54.0 °F 51.1 °F 90% 30.10 in 10.0 mi Variable 3.5 mph - N/A   Clear
2:56 AM 52.0 °F 51.1 °F 97% 30.11 in 10.0 mi Calm Calm - 0.01 in   Clear
3:10 AM 51.8 °F 51.8 °F 100% 30.11 in 1.8 mi Calm Calm - N/A   Clear
3:19 AM 51.8 °F 51.8 °F 100% 30.10 in 4.0 mi West 3.5 mph - N/A   Clear
3:56 AM 52.0 °F 51.1 °F 97% 30.12 in 10.0 mi West 3.5 mph - N/A   Clear
4:56 AM 51.1 °F 50.0 °F 96% 30.13 in 10.0 mi West 3.5 mph - N/A   Clear
5:56 AM 50.0 °F 48.9 °F 96% 30.15 in 10.0 mi Calm Calm - 0.01 in   Clear
6:56 AM 51.1 °F 48.9 °F 92% 30.17 in 10.0 mi West 4.6 mph - N/A   Clear
7:56 AM 54.0 °F 50.0 °F 86% 30.19 in 10.0 mi Variable 4.6 mph - N/A   Clear
8:56 AM 57.9 °F 48.9 °F 72% 30.19 in 10.0 mi NW 6.9 mph - 0.01 in   Clear
9:56 AM 61.0 °F 48.0 °F 62% 30.21 in 10.0 mi NW 9.2 mph - N/A   Clear
10:56 AM 63.0 °F 48.0 °F 58% 30.21 in 10.0 mi WNW 8.1 mph - 0.01 in   Clear
11:56 AM 64.9 °F 48.0 °F 54% 30.21 in 10.0 mi NNW 5.8 mph - 0.01 in   Clear
12:56 PM 68.0 °F 46.0 °F 45% 30.20 in 10.0 mi WNW 12.7 mph 18.4 mph N/A   Clear
1:56 PM 70.0 °F 48.0 °F 46% 30.20 in 10.0 mi Variable 6.9 mph - 0.01 in   Clear
2:56 PM 70.0 °F 46.9 °F 44% 30.19 in 10.0 mi WNW 10.4 mph 19.6 mph 0.01 in   Clear
3:56 PM 71.1 °F 45.0 °F 39% 30.18 in 10.0 mi North 9.2 mph 16.1 mph N/A   Clear
4:56 PM 71.1 °F 44.1 °F 38% 30.17 in 10.0 mi NW 8.1 mph 18.4 mph 0.01 in   Clear
5:56 PM 70.0 °F 42.1 °F 36% 30.17 in 10.0 mi Variable 6.9 mph - 0.01 in   Clear
6:56 PM 69.1 °F 42.1 °F 38% 30.16 in 10.0 mi Variable 5.8 mph - N/A   Clear
7:56 PM 66.0 °F 42.1 °F 42% 30.16 in 10.0 mi Variable 4.6 mph - 0.01 in   Clear
8:56 PM 63.0 °F 42.1 °F 46% 30.17 in 10.0 mi North 3.5 mph - 0.01 in   Clear
9:56 PM 57.0 °F 46.0 °F 67% 30.19 in 10.0 mi Calm Calm - N/A   Clear
10:56 PM 55.0 °F 46.0 °F 72% 30.21 in 10.0 mi Calm Calm - N/A   Clear
11:56 PM 51.1 °F 46.0 °F 83% 30.21 in 10.0 mi Calm Calm - N/A   Clear